Location: Cosy Dell
(34.2789°N, 117.4537°W)
Time: 20:57:09
(UTC+00:00)

Cosmos 2278 Rocket - Pass Details

Date: 14 July 2020
Orbit: 841 x 845 km, 71.0° (Epoch: 13 August)

Event Time Altitude Azimuth Distance (km) Brightness Sun altitude
Rises 03:37:29 0° 355° (N) 3,408 5.9 -7.0°
Reaches altitude 10° 03:40:44 10° 14° (NNE) 2,468 4.9 -7.6°
Maximum altitude 03:44:36 18° 57° (ENE) 1,932 3.9 -8.3°
Drops below altitude 10° 03:48:26 10° 100° (E) 2,458 4.1 -8.9°
Enters shadow 03:48:46 - 103° (ESE) 2,543 4.1 -9.0°
